User: anonymous
Location: Unspecified
(0.0000°N, 0.0000°E)
Time: 15:00:10
(UTC+02:00)
Language:

ATLAS V CENTAUR R/B - Orbit

View from above orbital plane
View from above orbital plane
View from above satellite
View from above satellite

Ground track
Ground track

The orbit data is extracted from the following two-line orbital elements,

1 27500U 02038B   14203.44226653  .00015446  00000-0  19306-2 0  9372
2 27500 017.9963 252.9449 6972188 011.6664 018.6990 02.69602244 95766
Epoch (UTC): 22 July 2014 10:36:51
Eccentricity: 0.6972188
inclination: 17.9963°
perigee height: 224 km
apogee height: 30632 km
right ascension of ascending node: 252.9449°
argument of perigee: 11.6664°
revolutions per day: 2.69602244
mean anomaly at epoch: 18.6990°
orbit number at epoch: 9576

The dashed part of the orbit path shows where the satellite is in the earth's shadow,  

DLR